Las Vegas Municipal Airport Las Vegas US
ICAO: KLVS
IATA: LVS
Category: Medium
Scheduled Services: No

Elevation: 6877 ft
TransAlt. 18000 ft.

Airport Communications:
ASOS:118.525
ALBUQUERQUE CNTR:132.8
ALBUQUERQUE RDO:122.6
CTAF/UNICOM:122.8

KLVS Zoom In..

If you have problems with the map follow the link
https://www.worldairports.se/pages/airport.php?
ICAO=KLVS

Runways:

(A) RW 02 length 5006 ft width 75 ft
---- / hdg 22

(B) RW 14 length 8199 ft width 75 ft
---- / hdg 139

(C) RW 20 length 5006 ft width 75 ft
---- / hdg 202

(D) RW 32 length 8199 ft width 75 ft
---- / hdg 319

Location; KLVS
Day. 18 / Time. 01.53 Zulu
* Altimeter: 29.84
* Temperature: -04° c. -24.8°f.
* Wind from: 220° Speed 10 kn.
Dewpoint: -12° c.
Visibility: 10 Statute Miles.
Clouds: Clear (automated report).

KLVS 180153Z AUTO 22010KT 10SM CLR M04/M12 A2984 RMK AO2 SLP126 T10441122


Wind From 220°
Speed 10 kn.

 
 
jpsmedia.com for Web Design worldairports.se 2019   terms of use